| time (UTC) | temp F | wind direction | speed MPH | gust MPH | rain 1hr in | rain 24hr in | rain mn in | humidity % | barometer mb |
| 20260901220052 | 63 | 0 | 0.0 | 1.0 | 0.00 | 0.00 | 0.00 | 83 | 1022.3 |
| 20260901214557 | 63 | 0 | 0.0 | 2.0 | 0.00 | 0.00 | 0.00 | 83 | 1022.6 |
| 20260901213047 | 63 | 0 | 0.0 | 1.0 | 0.00 | 0.00 | 0.00 | 82 | 1022.3 |
| 20260901211542 | 64 | 0 | 0.0 | 1.0 | 0.00 | 0.00 | 0.00 | 80 | 1022.5 |
| 20260901210049 | 64 | 0 | 0.0 | 4.0 | 0.00 | 0.00 | 0.00 | 79 | 1022.6 |
| 20260901204545 | 65 | 0 | 0.0 | 9.0 | 0.00 | 0.00 | 0.00 | 77 | 1022.5 |
| 20260901203046 | 65 | 0 | 1.0 | 7.0 | 0.00 | 0.00 | 0.00 | 76 | 1022.4 |
| 20260901201540 | 66 | 238 | 1.0 | 6.0 | 0.00 | 0.00 | 0.00 | 75 | 1022.3 |
| 20260901200040 | 66 | 273 | 1.0 | 6.0 | 0.00 | 0.00 | 0.00 | 74 | 1022.0 |
| 20260901194552 | 67 | 281 | 2.0 | 8.0 | 0.00 | 0.00 | 0.00 | 73 | 1021.8 |
| 20260901193044 | 67 | 269 | 2.0 | 9.0 | 0.00 | 0.00 | 0.00 | 72 | 1021.8 |
| 20260901191550 | 68 | 261 | 1.0 | 8.0 | 0.00 | 0.00 | 0.00 | 71 | 1021.5 |
| 20260901190053 | 69 | 246 | 2.0 | 8.0 | 0.00 | 0.00 | 0.00 | 68 | 1021.4 |
| 20260901184550 | 71 | 276 | 0.0 | 2.0 | 0.00 | 0.00 | 0.00 | 62 | 1021.4 |
| 20260901183101 | 72 | 0 | 0.0 | 0.0 | 0.00 | 0.00 | 0.00 | 61 | 1021.5 |
| 20260901181551 | 74 | 0 | 0.0 | 3.0 | 0.00 | 0.00 | 0.00 | 57 | 1021.4 |
| 20260901180051 | 75 | 0 | 0.0 | 4.0 | 0.00 | 0.00 | 0.00 | 54 | 1021.3 |
| 20260901174545 | 76 | 242 | 0.0 | 2.0 | 0.00 | 0.00 | 0.00 | 53 | 1021.4 |
| 20260901173047 | 78 | 0 | 0.0 | 2.0 | 0.00 | 0.00 | 0.00 | 51 | 1021.5 |
| 20260901171547 | 77 | 0 | 0.0 | 2.0 | 0.00 | 0.00 | 0.00 | 50 | 1021.4 |
| 20260901170044 | 78 | 0 | 0.0 | 4.0 | 0.00 | 0.00 | 0.00 | 51 | 1021.6 |
| 20260901164548 | 77 | 0 | 0.0 | 3.0 | 0.00 | 0.00 | 0.00 | 51 | 1021.5 |
| 20260901163054 | 77 | 0 | 1.0 | 4.0 | 0.00 | 0.00 | 0.00 | 51 | 1021.5 |
| 20260901161559 | 77 | 0 | 3.0 | 8.0 | 0.00 | 0.00 | 0.00 | 52 | 1021.5 |
| 20260901160044 | 76 | 0 | 0.0 | 3.0 | 0.00 | 0.00 | 0.00 | 53 | 1021.4 |
| 20260901154608 | 76 | 0 | 0.0 | 4.0 | 0.00 | 0.00 | 0.00 | 55 | 1021.4 |
| 20260901153050 | 77 | 0 | 0.0 | 3.0 | 0.00 | 0.00 | 0.00 | 52 | 1021.5 |
| 20260901151544 | 77 | 355 | 1.0 | 4.0 | 0.00 | 0.00 | 0.00 | 51 | 1021.4 |
| 20260901144548 | 76 | 350 | 0.0 | 3.0 | 0.00 | 0.00 | 0.00 | 52 | 1021.5 |
| 20260901143049 | 76 | 93 | 1.0 | 5.0 | 0.00 | 0.00 | 0.00 | 52 | 1021.6 |
| 20260901141600 | 76 | 0 | 0.0 | 2.0 | 0.00 | 0.00 | 0.00 | 55 | 1021.6 |
| 20260901140053 | 76 | 0 | 0.0 | 3.0 | 0.00 | 0.00 | 0.00 | 54 | 1021.8 |
| 20260901134545 | 76 | 0 | 0.0 | 3.0 | 0.00 | 0.00 | 0.00 | 55 | 1021.8 |
| 20260901133043 | 75 | 0 | 0.0 | 3.0 | 0.00 | 0.00 | 0.00 | 55 | 1022.1 |
| 20260901131547 | 75 | 0 | 0.0 | 2.0 | 0.00 | 0.00 | 0.00 | 58 | 1022.2 |
| 20260901130046 | 74 | 0 | 0.0 | 4.0 | 0.00 | 0.00 | 0.00 | 58 | 1022.5 |
| 20260901124547 | 73 | 0 | 0.0 | 0.0 | 0.00 | 0.00 | 0.00 | 61 | 1022.6 |
| 20260901123044 | 73 | 0 | 1.0 | 4.0 | 0.00 | 0.00 | 0.00 | 57 | 1022.9 |
| 20260901121548 | 74 | 0 | 0.0 | 4.0 | 0.00 | 0.00 | 0.00 | 58 | 1022.9 |
| 20260901120100 | 73 | 0 | 0.0 | 3.0 | 0.00 | 0.00 | 0.00 | 63 | 1023.0 |
| 20260901114545 | 72 | 120 | 0.0 | 4.0 | 0.00 | 0.04 | 0.00 | 62 | 1023.2 |
| 20260901113054 | 72 | 162 | 2.0 | 5.0 | 0.00 | 0.04 | 0.00 | 64 | 1023.2 |
| 20260901111555 | 72 | 0 | 0.0 | 2.0 | 0.00 | 0.04 | 0.00 | 63 | 1023.4 |
| 20260901110050 | 71 | 0 | 0.0 | 2.0 | 0.00 | 0.04 | 0.00 | 64 | 1023.5 |
| 20260901105020 | 72 | 0 | 0.0 | 2.0 | 0.00 | 0.04 | 0.00 | 67 | 1023.6 |
| 20260901103054 | 71 | 0 | 0.0 | 3.0 | 0.00 | 0.04 | 0.00 | 68 | 1023.6 |
| 20260901101545 | 70 | 0 | 0.0 | 2.0 | 0.00 | 0.04 | 0.00 | 70 | 1023.8 |
| 20260901100045 | 70 | 0 | 0.0 | 0.0 | 0.00 | 0.04 | 0.00 | 70 | 1023.6 |
| 20260901094554 | 69 | 0 | 0.0 | 0.0 | 0.00 | 0.05 | 0.00 | 76 | 1023.7 |
| 20260901093050 | 67 | 0 | 0.0 | 0.0 | 0.00 | 0.05 | 0.00 | 80 | 1023.6 |
| 20260901091547 | 65 | 0 | 0.0 | 0.0 | 0.00 | 0.05 | 0.00 | 84 | 1023.6 |
| 20260901090051 | 64 | 0 | 0.0 | 0.0 | 0.00 | 0.05 | 0.00 | 88 | 1023.5 |
| 20260901084545 | 63 | 0 | 0.0 | 0.0 | 0.00 | 0.15 | 0.00 | 92 | 1023.5 |
| 20260901083046 | 62 | 0 | 0.0 | 0.0 | 0.00 | 0.15 | 0.00 | 94 | 1023.4 |
| 20260901081544 | 61 | 0 | 0.0 | 2.0 | 0.00 | 0.15 | 0.00 | 95 | 1023.3 |
| 20260901080055 | 60 | 15 | 0.0 | 1.0 | 0.00 | 0.15 | 0.00 | 95 | 1023.2 |
| 20260901074548 | 59 | 0 | 0.0 | 0.0 | 0.00 | 0.15 | 0.00 | 96 | 1023.1 |
| 20260901073045 | 58 | 0 | 0.0 | 0.0 | 0.00 | 0.15 | 0.00 | 96 | 1023.1 |
| 20260901071550 | 57 | 0 | 0.0 | 0.0 | 0.00 | 0.15 | 0.00 | 95 | 1023.1 |
| 20260901070048 | 56 | 0 | 0.0 | 0.0 | 0.00 | 0.15 | 0.00 | 95 | 1023.3 |
| 20260901064543 | 56 | 0 | 0.0 | 0.0 | 0.00 | 0.15 | 0.00 | 95 | 1023.2 |
| 20260901063050 | 55 | 0 | 0.0 | 0.0 | 0.00 | 0.15 | 0.00 | 95 | 1023.2 |
| 20260901061621 | 54 | 0 | 0.0 | 0.0 | 0.00 | 0.15 | 0.00 | 95 | 1023.0 |
| 20260901061546 | 54 | 0 | 0.0 | 0.0 | 0.00 | 0.15 | 0.00 | 95 | 1023.0 |
| 20260901060046 | 54 | 0 | 0.0 | 0.0 | 0.00 | 0.15 | 0.00 | 95 | 1022.8 |
| 20260901054543 | 53 | 0 | 0.0 | 0.0 | 0.00 | 0.15 | 0.00 | 95 | 1022.9 |
| 20260901053057 | 53 | 0 | 0.0 | 0.0 | 0.00 | 0.15 | 0.00 | 94 | 1022.9 |
| 20260901051551 | 53 | 0 | 0.0 | 0.0 | 0.00 | 0.15 | 0.00 | 94 | 1022.9 |
| 20260901050045 | 54 | 0 | 0.0 | 0.0 | 0.00 | 0.15 | 0.00 | 94 | 1022.7 |
| 20260901044548 | 54 | 0 | 0.0 | 0.0 | 0.00 | 0.15 | 0.00 | 94 | 1022.7 |
| 20260901043049 | 54 | 0 | 0.0 | 0.0 | 0.00 | 0.15 | 0.00 | 94 | 1022.7 |
| 20260901041550 | 55 | 0 | 0.0 | 0.0 | 0.00 | 0.15 | 0.00 | 94 | 1022.9 |
| 20260901040045 | 56 | 0 | 0.0 | 0.0 | 0.00 | 0.15 | 0.00 | 94 | 1022.9 |
| 20260901034543 | 56 | 0 | 0.0 | 0.0 | 0.00 | 0.15 | 0.00 | 94 | 1022.8 |
| 20260901033044 | 56 | 0 | 0.0 | 0.0 | 0.00 | 0.15 | 0.00 | 94 | 1022.8 |
| 20260901031544 | 56 | 0 | 0.0 | 0.0 | 0.00 | 0.15 | 0.00 | 93 | 1022.8 |
| 20260901030043 | 56 | 0 | 0.0 | 0.0 | 0.00 | 0.15 | 0.00 | 93 | 1022.9 |
| 20260901024543 | 56 | 0 | 0.0 | 0.0 | 0.00 | 0.15 | 0.00 | 93 | 1022.9 |
| 20260901023050 | 56 | 0 | 0.0 | 0.0 | 0.00 | 0.15 | 0.00 | 93 | 1023.1 |
| 20260901021542 | 56 | 0 | 0.0 | 0.0 | 0.00 | 0.15 | 0.00 | 93 | 1023.0 |
| 20260901020043 | 56 | 0 | 0.0 | 0.0 | 0.00 | 0.15 | 0.00 | 92 | 1023.1 |
| 20260901014550 | 57 | 0 | 0.0 | 0.0 | 0.00 | 0.15 | 0.00 | 92 | 1023.2 |
| 20260901013050 | 57 | 0 | 0.0 | 0.0 | 0.00 | 0.15 | 0.00 | 92 | 1023.2 |
| 20260901011543 | 58 | 0 | 0.0 | 0.0 | 0.00 | 0.15 | 0.00 | 92 | 1023.3 |
| 20260901010046 | 58 | 0 | 0.0 | 0.0 | 0.00 | 0.15 | 0.00 | 92 | 1023.3 |
| 20260901004547 | 58 | 0 | 0.0 | 0.0 | 0.00 | 0.15 | 0.00 | 91 | 1023.2 |
| 20260901003043 | 58 | 0 | 0.0 | 0.0 | 0.00 | 0.15 | 0.00 | 91 | 1023.4 |
| 20260901001546 | 58 | 0 | 0.0 | 0.0 | 0.00 | 0.15 | 0.00 | 90 | 1023.4 |
| 20260901000045 | 59 | 0 | 0.0 | 0.0 | 0.00 | 0.15 | 0.00 | 89 | 1023.2 |
| 20260831234550 | 59 | 0 | 0.0 | 0.0 | 0.00 | 0.15 | 0.00 | 89 | 1023.3 |
| 20260831233047 | 60 | 0 | 0.0 | 0.0 | 0.00 | 0.15 | 0.00 | 88 | 1023.2 |
| 20260831231544 | 60 | 0 | 0.0 | 2.0 | 0.00 | 0.15 | 0.00 | 88 | 1023.3 |
| 20260831230044 | 60 | 269 | 0.0 | 4.0 | 0.00 | 0.15 | 0.00 | 88 | 1023.3 |
| 20260831224542 | 61 | 0 | 0.0 | 2.0 | 0.00 | 0.15 | 0.00 | 87 | 1023.2 |
| 20260831223053 | 61 | 0 | 0.0 | 0.0 | 0.00 | 0.15 | 0.00 | 87 | 1023.1 |
| 20260831221543 | 61 | 0 | 0.0 | 0.0 | 0.00 | 0.15 | 0.00 | 86 | 1023.2 |